Welcome to the New NWS' Forecast!
Most changes are behind the scenes, but click here for differences you might notice.
Latest weather observations around

Hot Springs, Memorial Field Airport (KHOT)

Using English Units (Switch to International System of Units)
Date/ Time (CDT) Wind (mph) Vis. (mi) Weather Sky Cond. Temp (°F) Rel. Humidity Wind Chill (°F) Heat Index (°F) Pressure Precip. (in)
Air Dwpt 6 hour Altimeter (inHg) Sea level (inHg) 1 hr 3 hr 6 hr
Max Min
Jul 28 06:53 Calm 10 Mostly Clear FEW120 81 76     85%   87 29.92 29.9     0
Jul 28 05:53 Calm 10 Mostly Cloudy BKN095 BKN120 82 75     79%   89 29.91 29.88 0    
Jul 28 04:53 WNW 3 10 Cloudy OVC090 82 74     77%   88 29.9 29.87      
Jul 28 03:53 W 3 10 Mostly Cloudy FEW100 BKN120 82 75     79%   89 29.88 29.85      
Jul 28 02:53 NW 3 10 Clear CLR 83 76     79%   91 29.89 29.86      
Jul 28 01:53 3 10 Clear CLR 83 75     77%   90 29.89 29.86      
Jul 28 00:53 Calm 10 Clear CLR 83 76     79%   91 29.9 29.87      
Jul 27 23:53 Calm 10 Clear CLR 84 76     77%   93 29.91 29.88      
Jul 27 22:53 Calm 10 Clear CLR 85 75     72%   93 29.91 29.88      
Jul 27 21:53 Calm 10 Clear CLR 88 74     63%   97 29.9 29.88      
Jul 27 20:53 SSW 3 10 Clear CLR 89 75     63%   99 29.9 29.88      
Jul 27 19:53 WSW 9 10 Clear CLR 90 75     62%   101 29.89 29.86      
Jul 27 18:53 SSW 9 10 Clear CLR 92 75     58%   103 29.89 29.86      
Jul 27 17:53 SW 10 10 Clear CLR 95 75     53%   107 29.9 29.88      
Jul 27 16:53 SW 10 10 Clear CLR 95 75     53%   107 29.91 29.88      
Jul 27 15:53 SW 9 10 Mostly Clear FEW080 95 73     49%   105 29.94 29.91      
Jul 27 14:53 SW 11 10 Clear CLR 96 73     48%   106 29.95 29.93      
Jul 27 13:53 W 7 10 Mostly Clear FEW090 94 73     51%   103 29.98 29.96      
Jul 27 12:53 WSW 8 10 Mostly Clear FEW080 93 73     52%   102 30.01 29.98      
Jul 27 11:53 6 10 Clear CLR 92 74     56%   102 30.02 29.99      
Jul 27 10:53 SW 7 10 Clear CLR 89 74     61%   98 30.03 30.01      
Jul 27 09:53 W 8 10 Clear CLR 87 75     68%   97 30.04 30.01      
Jul 27 05:53 Calm 10 Clear CLR 78 74     87%   80 30.01 29.99      
Jul 27 04:53 WNW 3 10 Clear CLR 79 75     88%   83 30 29.97      
Jul 27 03:53 WNW 5 10 Clear CLR 79 75     88%   83 30 29.98      
Jul 27 01:53 Calm 10 Clear CLR 79 75     88%   83 30.02 29.99      
Jul 27 00:53 Calm 10 Clear CLR 80 75     85%   85 30.03 30      
Jul 26 23:53 SE 3 10 Clear CLR 83 75     77%   90 30.02 30      
Jul 26 22:53 SE 5 10 Clear CLR 84 75     74%   92 30.03 30      
Jul 26 21:53 Calm 10 Clear CLR 85 75     72%   93 30.04 30.02      
Jul 26 20:53 Calm 10 Clear CLR 86 74     67%   94 30.03 30.01      
Jul 26 19:53 SW 3 10 Clear CLR 88 73     61%   96 30.02 30      
Jul 26 18:53 SW 8 10 Clear CLR 92 71     51%   99 30.02 29.99      
Jul 26 17:53 S 9 10 Partly Cloudy SCT055 93 71     49%   100 30.02 29.99      
Jul 26 16:53 SSW 10 10 Clear CLR 95 71     46%   103 30.03 30.01      
Jul 26 15:53 SSW 10 10 Mostly Cloudy BKN050 BKN060 94 73     51%   103 30.04 30.02      
Jul 26 14:53 S 5 10 Mostly Cloudy BKN055 BKN070 93 72     51%   101 30.06 30.03      
Jul 26 13:53 W 8 10 Mostly Clear FEW049 95 73     49%   105 30.08 30.06      
Jul 26 12:53 SW 9 10 Partly Cloudy FEW047 SCT055 93 72     51%   101 30.09 30.07      
Jul 26 11:53 WSW 7 10 Partly Cloudy FEW037 SCT048 91 74     57%   101 30.11 30.09      
Jul 26 10:53 7 10 Clear CLR 89 76     65%   100 30.11 30.08      
Jul 26 09:53 5 10 Clear CLR 86 76     72%   96 30.11 30.09      
Jul 26 08:53 5 10 Clear CLR 83 74     74%   89 30.11 30.09      
Jul 26 07:53 Calm 10 Clear CLR 80 74     82%   85 30.12 30.09      
Jul 26 06:53 Calm 10 Clear CLR 74 72     94%   75 30.1 30.08      
Jul 26 05:53 W 3 10 Clear CLR 76 73     91%   77 30.1 30.07      
Jul 26 04:53 Calm 10 Clear CLR 76 73     91%   77 30.09 30.06      
Jul 26 03:53 NW 3 10 Clear CLR 77 74     90%   79 30.09 30.07      
Jul 26 02:53 NW 3 10 Clear CLR 79 74     85%   83 30.09 30.07      
Jul 26 01:53 Calm 10 Clear CLR 79 74     85%   83 30.09 30.06      
Jul 26 00:53 ENE 5 10 Clear CLR 78 75     90%   80 30.09 30.07      
Jul 25 23:53 Calm 10 Clear CLR 80 75     85%   85 30.07 30.04      
Jul 25 22:53 Calm 10 Clear CLR 82 75     79%   89 30.07 30.04      
Jul 25 21:53 Calm 10 Clear CLR 83 75     77%   90 30.06 30.03      
Jul 25 20:53 Calm 10 Clear CLR 86 74     67%   94 30.06 30.03      
Jul 25 19:53 SW 7 10 Clear CLR 90 73     58%   98 30.05 30.03      
Jul 25 18:53 SSW 7 10 Clear CLR 92 74     56%   102 30.05 30.03      
Jul 25 17:53 SW 7 10 Clear CLR 94 73     51%   103 30.04 30.02      
Jul 25 16:53 SW 8 10 Mostly Cloudy BKN047 BKN060 94 74     53%   104 30.05 30.02      
Jul 25 15:53 SSW 7 10 Partly Cloudy SCT055 94 73     51%   103 30.06 30.03      
Jul 25 14:53   10 Mostly Clear FEW055 94 74     53%   104 30.07 30.05      
Jul 25 13:53   10 Partly Cloudy SCT047 94 73     51%   103 30.08 30.06      
Jul 25 12:53 6 10 Partly Cloudy FEW046 SCT055 93 74     54%   103 30.09 30.06      
Jul 25 11:53 S 7 10 Clear CLR 91 74     57%   101 30.1 30.07      
Jul 25 09:53 WSW 7 10 Clear CLR 87 76     70%   98 30.1 30.08      
Jul 25 08:53 5 10 Clear CLR 84 76     77%   93 30.1 30.08      
Jul 25 07:53 Calm 10 Clear CLR 80 75     85%   85 30.1 30.08      
Jul 25 06:53 Calm 9 Clear CLR 76 75     97%   78 30.09 30.06      
Jul 25 05:53 Calm 10 Clear CLR 76 75     97%   78 30.06 30.04      
Jul 25 04:53 Calm 10 Clear CLR 77 76     96%   79 30.05 30.02      
Jul 25 03:53 Calm 10 Clear CLR 77 76     96%   79 30.03 30.01      
Jul 25 02:53 W 3 10 Clear CLR 78 76     93%   80 30.02 29.99      
Jul 25 01:53 W 3 10 Clear CLR 79 76     90%   83 30.02 30      
Jul 25 00:53 WNW 3 10 Clear CLR 80 76     87%   85 30.01 29.99      
Jul 24 23:53 W 3 10 Clear CLR 81 75     82%   87 30.02 30      
Jul 24 22:53 W 5 10 Clear CLR 83 75     77%   90 30.01 29.98      
Jul 24 21:53 WSW 5 10 Clear CLR 83 76     79%   91 29.98 29.96      
Jul 24 20:53 S 5 10 Clear CLR 86 76     72%   96 29.96 29.93      
Jul 24 19:53 SW 7 10 Clear CLR 89 76     65%   100 29.95 29.92      
Jul 24 18:53 SW 6 10 Clear CLR 91 76     61%   103 29.93 29.9     0
Jul 24 17:53 SSW 8 10 Mostly Cloudy SCT060 BKN080 92 76     60%   104 29.93 29.9 0    
Jul 24 16:53 3 10 Partly Cloudy SCT065 SCT110 93 75     56%   105 29.93 29.91 0    
Jul 24 15:53 SSW 6 10 Clear CLR 93 73     52%   102 29.94 29.92      
Jul 24 14:53 S 7 10 Clear CLR 92 73     54%   101 29.96 29.93      
Jul 24 13:53 6 10 Clear CLR 91 73     56%   100 29.97 29.94      
Jul 24 12:53 SSE 6 10 Clear CLR 88 74     63%   97 29.98 29.95      
Jul 24 11:53 5 10 Clear CLR 88 75     66%   98 29.98 29.96      
Jul 24 10:53 Calm 10 Clear CLR 85 73     68%   92 29.98 29.96      
Jul 24 09:53 Calm 10 Clear CLR 81 73     77%   86 29.98 29.96      
Jul 24 08:53 Calm 10 Clear CLR 78 74     87%   80 29.98 29.96      
Jul 24 07:53 S 3 10 Clear CLR 75 74     96%   77 29.96 29.94      
Jul 24 06:53 Calm 10 Clear CLR 74 74     100%   76 29.95 29.93      
Jul 24 05:53 Calm 10 Clear CLR 74 74     100%   76 29.93 29.91      
Jul 24 04:53 W 6 10 Partly Cloudy SCT005 73 73     100%   75 29.92 29.89      
Jul 24 04:44 W 7 10 Partly Cloudy SCT005 74 73     97%   76 29.92        
Jul 24 03:53 W 5 10 Clear CLR 74 73     97%   76 29.9 29.88      
Jul 24 02:53 NW 5 10 Mostly Clear FEW005 74 74     100%   76 29.91 29.88      
Jul 24 02:43 NW 5 10 Partly Cloudy SCT005 SCT090 74 74     100%   76 29.91        
Jul 24 01:53 ENE 5 10 Clear CLR 75 74     96%   77 29.92 29.9      
Jul 24 00:53   10 Clear CLR 75 73     94%   77 29.94 29.92     0
Jul 23 23:53 Calm 10 Clear CLR 74 73     97%   76 29.91 29.89 0    
Jul 23 22:53 E 6 10 Clear CLR 74 74     100%   76 29.92 29.9 0    
Jul 23 21:53 Calm 10 Light Rain FEW120 73 73     100%   75 29.92 29.89 0 0  
Jul 23 21:10 W 5 6 Rain and Fog/Mist BKN120 73 72     96%   75 29.9   0    
Jul 23 21:00 WNW 6 7 Light Rain BKN120 73 72     96%   75 29.9   0    
Jul 23 20:53 NW 7 8 Thunderstorms and Rain BKN120 73 72     96%   75 29.9 29.88 0    
Jul 23 20:45 NW 7 7 Thunderstorms and Rain SCT120 73 72     96%   75 29.9   0    
Jul 23 20:29 W 5 10 Light Rain FEW120 74 72     94%   75 29.89   0    
Jul 23 19:53 WSW 7 10 Thunderstorms and Rain FEW120 75 72     90%   76 29.88 29.85 0    
Jul 23 19:11   3 Thunderstorms and Rain and Fog/Mist FEW022 SCT050 BKN080 76 74     94%   78 29.87   0    
Jul 23 19:00 Calm 1.5 Thunderstorms and Heavy Rain FEW028 BKN060 OVC080 78 73     85%   80 29.88   0    
Jul 23 18:53 NE 8 8 Thunderstorms and Rain SCT048 BKN055 OVC075 84 70     63%   88 29.87   0   0
Notice The following observation data may not be complete
Jul 23 18:44   10 Thunderstorms BKN055 OVC080   67      %     29.84        
Jul 23 18:35   10 Thunderstorms BKN055 OVC075 87 71     59%   93 29.83        
Jul 23 17:53 SSW 8 10 Partly Cloudy FEW050 SCT100 96 73     48%   106 29.81 29.79 0    
Jul 23 17:42 S 7 10 Mostly Clear FEW100 96 73     48%   106 29.83   0    
Jul 23 16:53 SSE 6 10 Light Rain FEW055 FEW070 BKN110 96 73     48%   106 29.84 29.81 0    
Jul 23 15:53 SSW 9 10 Clear CLR 97 73     46%   107 29.84 29.81      
Jul 23 14:53 S 8 10 Clear CLR 97 72     45%   106 29.85 29.83      
Jul 23 13:53 SSE 6 10 Clear CLR 96 73     48%   106 29.88 29.85      
Jul 23 12:53 5 10 Mostly Cloudy BKN050 95 73     49%   105 29.9 29.87      
Jul 23 11:53 5 10 Mostly Cloudy BKN045 BKN055 92 74     56%   102 29.91 29.89      
Jul 23 10:53 Calm 10 Clear CLR 91 74     57%   101 29.93 29.91      
Jul 23 09:53 5 10 Mostly Clear FEW060 87 76     70%   98 29.94 29.91      
Jul 23 08:53 WSW 5 10 Clear CLR 83 76     79%   91 29.95 29.93      
Jul 23 07:53 WNW 5 10 Clear CLR 80 76     87%   85 29.94 29.92      
Jul 23 06:53 Calm 9 Clear CLR 78 76     93%   80 29.92 29.9      
Jul 23 05:53 W 5 10 Clear CLR 78 76     93%   80 29.91 29.88      
Jul 23 04:53 W 5 10 Clear CLR 79 76     90%   83 29.91 29.88      
Jul 23 03:53 Calm 10 Clear CLR 79 76     90%   83 29.9 29.87      
Jul 23 02:53 3 10 Clear CLR 80 76     87%   85 29.9 29.88      
Jul 23 01:53 Calm 10 Clear CLR 81 76     85%   87 29.9 29.88      
Jul 23 00:53 Calm 10 Clear CLR 82 76     82%   89 29.91 29.88      
Jul 22 23:53 E 3 10 Clear CLR 82 75     79%   89 29.92 29.89      
Jul 22 22:53 E 3 10 Clear CLR 83 75     77%   90 29.93 29.9      
Jul 22 21:53 Calm 10 Clear CLR 84 75     74%   92 29.91 29.89      
Jul 22 20:53 S 3 10 Clear CLR 88 75     66%   98 29.9 29.88      
Jul 22 19:53 SSW 6 10 Clear CLR 91 74     57%   101 29.88 29.86      
Jul 22 18:53 S 7 10 Clear CLR 93 73     52%   102 29.88 29.86      
Jul 22 17:53 S 8 10 Clear CLR 95 73     49%   105 29.89 29.86      
Jul 22 16:53 S 9 10 Clear CLR 95 72     48%   104 29.9 29.87      
Jul 22 15:53 S 8 10 Clear CLR 96 73     48%   106 29.91 29.88      
Jul 22 14:53 S 9 10 Clear CLR 96 73     48%   106 29.92 29.89      
Jul 22 13:53 S 13 10 Clear CLR 96 73     48%   106 29.94 29.92      
Jul 22 12:53 SSE 8 10 Clear CLR 94 73     51%   103 29.97 29.94      
Jul 22 11:53 SSW 9 10 Clear CLR 94 72     49%   102 29.98 29.95      
Jul 22 10:53 SW 7 10 Clear CLR 92 74     56%   102 29.99 29.96      
Jul 22 09:53 SW 7 10 Clear CLR 88 75     66%   98 29.99 29.96      
Jul 22 08:53 WSW 6 10 Clear CLR 86 75     70%   95 29.99 29.97      
Jul 22 07:53 Calm 9 Clear CLR 83 76     79%   91 29.98 29.96      
Jul 22 06:53 NE 3 5 Fog/Mist CLR 77 76     96%   79 29.97 29.94      
Jul 22 05:53 Calm 6 Fog/Mist CLR 78 76     93%   80 29.95 29.93      
Jul 22 04:53 Calm 7 Clear CLR 79 77     94%   83 29.94 29.91      
Jul 22 03:53 Calm 8 Clear CLR 80 77     90%   86 29.94 29.91      
Jul 22 02:53 WNW 5 8 Clear CLR 80 76     87%   85 29.95 29.92      
Jul 22 01:53 Calm 9 Clear CLR 81 77     88%   88 29.96 29.93      
Jul 22 00:53 Calm 10 Clear CLR 83 77     82%   92 29.98 29.95      
Jul 21 23:53 Calm 10 Clear CLR 83 77     82%   92 29.98 29.95      
Jul 21 22:53 SE 3 10 Clear CLR 86 77     75%   97 29.97 29.94      
Jul 21 21:53 S 3 10 Clear CLR 87 77     72%   99 29.97 29.94      
Jul 21 20:53 S 3 10 Clear CLR 89 77     68%   102 29.96 29.93      
Jul 21 19:53 S 6 10 Clear CLR 92 75     58%   103 29.95 29.93      
Jul 21 18:53 S 8 10 Clear CLR 94 71     48%   101 29.94 29.92      
Jul 21 18:00 6 10 Clear CLR 95 73     49%   105 29.94        
Jul 21 17:53 5 10 Clear CLR 95 73     49%   105 29.95 29.92      
Jul 21 17:38 6 10 Clear CLR 95 72     48%   104 29.95        
Jul 21 16:53 SSW 9 10 Clear CLR 96 73     48%   106 29.96 29.93      
Jul 21 15:53 WSW 6 10 Partly Cloudy SCT055 SCT120 95 74     51%   106 29.98 29.95      
Jul 21 14:53 S 7 10 Clear CLR 96 75     51%   109 29.99 29.97      
Jul 21 12:53 6 10 Mostly Cloudy SCT048 BKN060 94 74     53%   104 30.03 30      
Jul 21 11:53   10 Mostly Clear FEW044 94 75     54%   106 30.04 30.01      
Jul 21 10:53 SW 8 10 Clear CLR 93 75     56%   105 30.04 30.02      
Jul 21 09:53 WSW 9 10 Clear CLR 90 75     62%   101 30.05 30.02      
Jul 21 08:53 SSW 3 10 Clear CLR 86 77     75%   97 30.05 30.03      
Jul 21 07:53 Calm 7 Clear CLR 82 78     88%   91 30.05 30.03      
Jul 21 06:53 Calm 7 Clear CLR 77 75     94%   79 30.04 30.01      
Jul 21 05:53 Calm 7 Clear CLR 77 76     96%   79 30.03 30.01      
Jul 21 04:53 Calm 7 Clear CLR 78 76     93%   80 30.02 29.99      
Jul 21 03:53 NW 3 7 Clear CLR 77 76     96%   79 30.02 29.99      
Jul 21 02:53 Calm 9 Clear CLR 79 77     94%   83 30.02 30      
Jul 21 01:53 Calm 9 Clear CLR 80 77     90%   86 30.03 30      
Jul 21 00:53 Calm 10 Clear CLR 81 77     88%   88 30.04 30.01      
Jul 20 23:53 Calm 10 Clear CLR 83 77     82%   92 30.05 30.02      
Jul 20 22:53 NE 3 10 Clear CLR 84 77     80%   94 30.05 30.02      
Jul 20 21:53 Calm 10 Clear CLR 85 76     75%   94 30.03 30.01      
Jul 20 20:53 S 3 10 Clear CLR 88 76     68%   99 30.02 29.99      
Jul 20 19:53 S 3 10 Clear CLR 91 76     61%   103 30.01 29.99      
Jul 20 18:53 SSW 6 10 Mostly Clear FEW046 93 75     56%   105 30.01 29.98      
Jul 20 17:53 S 7 10 Clear CLR 94 75     54%   106 30.02 29.99      
Jul 20 17:11 SW 8 10 Clear CLR 94 74     53%   104 30.03        
Jul 20 16:53 S 7 10 Clear CLR 94 75     54%   106 30.04 30.01      
Jul 20 15:53 SW 7 10 Clear CLR 96 76     53%   110 30.05 30.02      
Jul 20 14:53 SSE 8 10 Mostly Clear FEW060 94 75     54%   106 30.07 30.04      
Jul 20 13:53 SSW 8 9 Mostly Clear FEW050 95 75     53%   107 30.09 30.06      
Jul 20 12:53 WSW 6 10 Mostly Clear FEW047 95 74     51%   106 30.11 30.08      
Jul 20 11:53 W 9 10 Mostly Clear FEW039 94 74     53%   104 30.12 30.1      
Jul 20 10:53 SSW 9 10 Clear CLR 92 76     60%   104 30.13 30.11      
Jul 20 09:53 SSW 5 10 Clear CLR 88 77     70%   100 30.14 30.11      
Jul 20 08:53 W 3 10 Clear CLR 84 77     80%   94 30.13 30.11      
Jul 20 07:53 Calm 9 Clear CLR 81 77     88%   88 30.13 30.11      
Jul 20 06:53 Calm 8 Clear CLR 77 75     94%   79 30.13 30.1      
Jul 20 04:53 Calm 9 Clear CLR 77 75     94%   79 30.1 30.08      
Jul 20 03:53 Calm 9 Clear CLR 77 76     96%   79 30.1 30.08      
Jul 20 02:53 Calm 10 Clear CLR 78 76     93%   80 30.1 30.07      
Jul 20 01:53 Calm 10 Clear CLR 80 76     87%   85 30.1 30.08      
Jul 20 00:53 Calm 10 Clear CLR 81 76     85%   87 30.11 30.08      
Jul 19 23:53 E 3 10 Clear CLR 82 76     82%   89 30.11 30.08      
Jul 19 22:53 ENE 5 10 Clear CLR 81 77     88%   88 30.1 30.08      
Jul 19 20:53 E 5 10 Clear CLR 86 76     72%   96 30.07 30.04      
Jul 19 19:53 E 5 10 Clear CLR 88 76     68%   99 30.07 30.04      
Jul 19 18:53 SSE 5 10 Mostly Clear FEW045 93 74     54%   103 30.06 30.04      
Jul 19 17:53 E 5 10 Mostly Clear FEW045 94 75     54%   106 30.07 30.04      
Jul 19 16:53 Calm 10 Cloudy OVC100 91 75     60%   102 30.08 30.05      
Jul 19 15:53 NNE 3 10 Cloudy OVC100 89 73     59%   97 30.1 30.07      
Jul 19 15:13 N 10 10 Cloudy BKN055 BKN065 OVC110 86 72     63%   92 30.11        
Jul 19 14:53 6 10 Thunderstorms BKN050 89 72     57%   96 30.11 30.09      
Jul 19 13:53 SSW 8 10 Clear CLR 96 72     46%   105 30.12 30.1      
Jul 19 12:53 SSW 6 10 Clear CLR 94 73     51%   103 30.14 30.12      
Jul 19 11:53 SSE 8 10 Mostly Clear FEW042 93 74     54%   103 30.15 30.13      
Jul 19 10:53 SSE 5 10 Clear CLR 91 74     57%   101 30.15 30.13      
Jul 19 09:53 Calm 10 Clear CLR 88 76     68%   99 30.15 30.13      
Jul 19 05:53 Calm 10 Clear CLR 75 74     96%   77 30.13 30.11      
Jul 19 04:53 Calm 10 Clear CLR 76 74     94%   78 30.12 30.09      
Jul 19 03:53 Calm 10 Clear CLR 77 74     90%   79 30.11 30.09      
Jul 19 01:53 ENE 5 10 Clear CLR 78 74     87%   80 30.1 30.08      
Jul 19 00:53 ENE 3 10 Clear CLR 80 74     82%   85 30.1 30.07      
Jul 18 23:53 ENE 6 10 Clear CLR 81 74     79%   86 30.09 30.07      
Jul 18 22:53 E 6 10 Clear CLR 81 75     82%   87 30.09 30.06      
Jul 18 21:53 Calm 10 Clear CLR 84 75     74%   92 30.07 30.05      
Jul 18 20:53 E 5 10 Clear CLR 86 73     65%   93 30.05 30.03      
Jul 18 19:53 E 3 10 Clear CLR 90 72     56%   97 30.04 30.01      
Jul 18 18:53 SSE 3 10 Mostly Clear FEW055 92 71     51%   99 30.03 30.01      
Jul 18 17:53 S 5 10 Clear CLR 93 70     47%   99 30.02 30      
Jul 18 16:53 SSW 5 10 Clear CLR 94 70     46%   100 30.03 30.01      
Jul 18 15:53 5 10 Mostly Clear FEW055 95 71     46%   103 30.04 30.02      
Jul 18 14:53 S 7 10 Mostly Clear FEW065 92 70     49%   98 30.06 30.03      
Jul 18 13:53 6 10 Partly Cloudy FEW050 SCT070 92 70     49%   98 30.06 30.04      
Jul 18 12:53 SW 5 10 Partly Cloudy SCT065 92 74     56%   102 30.08 30.06      
Jul 18 11:53 S 7 10 Clear CLR 90 73     58%   98 30.09 30.06      
Jul 18 10:53 S 5 10 Clear CLR 88 72     59%   95 30.09 30.06      
Jul 18 09:53 SW 3 10 Clear CLR 85 72     65%   91 30.09 30.06      
Jul 18 08:53 Calm 9 Mostly Clear FEW055 79 73     82%   82 30.09 30.07      
Jul 18 05:53 Calm 8 Clear CLR 70 68     93%     30.06 30.03      
Jul 18 03:53 Calm 8 Clear CLR 72 70     93%   73 30.02 30      
Jul 18 02:53 NW 3 8 Clear CLR 71 70     96%   72 30.03 30      
Jul 18 01:53 Calm 10 Clear CLR 73 70     90%   74 30.02 29.99      
Jul 18 00:53 Calm 10 Clear CLR 75 71     88%   76 30.02 29.99      
Jul 17 23:53 Calm 10 Clear CLR 76 71     85%   77 30.01 29.98      
Jul 17 22:53 Calm 10 Clear CLR 78 71     79%   79 30 29.98      
Jul 17 21:53 E 5 10 Clear CLR 80 70     71%   83 29.98 29.96      
Jul 17 20:53 E 3 10 Clear CLR 83 68     61%   86 29.96 29.94      
Jul 17 19:53 SE 5 10 Clear CLR 87 67     51%   90 29.95 29.93      
Jul 17 18:53 SSE 6 10 Clear CLR 89 68     50%   93 29.96 29.93      
Jul 17 17:53 SE 7 10 Clear CLR 90 68     49%   94 29.96 29.94      
Jul 17 14:53 5 10 Clear CLR 91 67     45%   94 29.98 29.96      
Jul 17 13:53 ENE 8 10 Clear   91 67     45%   94 29.99 29.97      
Jul 17 12:53 3 10 Partly Cloudy SCT050 89 69     52%   94 30.01 29.99      
Jul 17 11:53 W 3 10 Mostly Cloudy BKN045 BKN055 85 70     61%   89 30.02 30      
Jul 17 10:53 Calm 10 Mostly Cloudy SCT043 BKN055 85 70     61%   89 30.02 30      
Jul 17 09:53 Calm 10 Mostly Clear FEW055 86 72     63%   92 30.02 29.99      
Jul 17 08:53 Calm 10 Partly Cloudy SCT060 81 74     79%   86 30.02 30      
Jul 17 07:53 Calm 10 Clear CLR 76 73     91%   77 30.01 29.99      
Jul 17 06:53 Calm 8 Mostly Clear FEW060 73 71     94%   74 30.01 29.98      
Jul 17 05:53 Calm 9 Partly Cloudy SCT055 71 70     96%   72 30 29.97      
Jul 17 04:53 Calm 7 Clear CLR 72 72     100%   74 29.97 29.95      
Jul 17 03:53 Calm 8 Mostly Clear FEW050 73 73     100%   75 29.97 29.94      
Jul 17 02:53 Calm 10 Partly Cloudy SCT050 74 73     97%   76 29.97 29.95      
Jul 17 01:53 Calm 10 Mostly Clear FEW055 75 73     94%   77 29.97 29.95      
Jul 17 00:53 Calm 10 Clear CLR 76 74     94%   78 29.98 29.95      
Jul 16 23:53 Calm 10 Clear CLR 77 74     90%   79 29.98 29.95      
Jul 16 22:53 E 3 10 Clear CLR 79 74     85%   83 29.98 29.95      
Jul 16 21:53 E 3 10 Clear CLR 80 74     82%   85 29.96 29.94      
Jul 16 20:53 E 3 10 Clear CLR 82 74     77%   88 29.95 29.92      
Jul 16 19:53 E 5 10 Clear CLR 86 72     63%   92 29.94 29.92      
Jul 16 18:53 E 7 10 Clear CLR 89 72     57%   96 29.94 29.91      
Jul 16 17:53 E 6 10 Partly Cloudy SCT050 90 71     54%   96 29.93 29.91      
Jul 16 16:53 E 6 10 Mostly Clear FEW050 91 71     52%   98 29.94 29.92      
Jul 16 15:53 E 6 10 Clear CLR 90 69     50%   95 29.96 29.94      
Jul 16 14:53 E 8 10 Clear CLR 91 71     52%   98 29.98 29.96      
Jul 16 13:53 E 7 10 Mostly Clear FEW060 90 73     58%   98 29.99 29.97      
Jul 16 12:53 ENE 8 10 Partly Cloudy FEW030 SCT037 89 74     61%   98 30.01 29.98      
Jul 16 11:53 NE 6 10 Mostly Clear FEW025 86 74     67%   94 30.02 30      
Jul 16 10:53 E 9 10 Clear CLR 85 75     72%   93 30.04 30.01      
Jul 16 09:53 E 7 10 Clear CLR 83 76     79%   91 30.03 30.01      
Jul 16 08:53 E 7 10 Clear CLR 81 77     88%   88 30.04 30.01      
Jul 16 07:53 Calm 4 Fog/Mist FEW001 77 76     96%   79 30.04 30.01      
Jul 16 07:45 Calm 4 Fog/Mist FEW001 76 76     100%   78 30.04        
Jul 16 07:35 Calm 2.5 Fog/Mist FEW001 76 76     100%   78 30.04        
Jul 16 06:53 Calm 4 Fog/Mist SCT002 74 74     100%   76 30.03 30.01      
Jul 16 05:53 Calm 5 Fog/Mist CLR 74 74     100%   76 30.02 29.99      
Jul 16 04:53 Calm 4 Fog/Mist CLR 75 74     96%   77 30.01 29.98      
Jul 16 03:53 Calm 5 Fog/Mist CLR 75 75     100%   77 30 29.98      
Jul 16 02:53 Calm 7 Clear CLR 75 75     100%   77 29.99 29.97      
Jul 16 01:53 Calm 9 Clear CLR 76 75     97%   78 30.01 29.98      
Jul 16 00:53 Calm 8 Clear CLR 76 76     100%   78 30.02 30     0
Jul 15 23:53 Calm 5 Fog/Mist CLR 77 77     100%   79 30.03 30.01      
Jul 15 22:53 Calm 7 Clear CLR 78 78     100%   81 30.02 30      
Jul 15 21:53 NNW 3 8 Cloudy OVC100 78 78     100%   81 30.02 30 0 0  
Jul 15 21:38 Calm 10 Cloudy FEW060 FEW080 OVC095 79 77     94%   83 30.02   0    
Jul 15 21:20 Calm 10 Cloudy FEW055 BKN075 OVC095 79 77     94%   83 30.02   0    
Jul 15 20:53 NE 7 6 Rain and Fog/Mist FEW032 SCT042 OVC085 80 76     87%   85 30.01 29.99 0    
Jul 15 19:53 E 5 10 Partly Cloudy SCT046 87 73     63%   95 29.99 29.96      
Jul 15 18:53 ENE 8 10 Clear CLR 88 72     59%   95 29.98 29.96      
Jul 15 17:53 E 6 10 Partly Cloudy SCT042 90 74     59%   99 29.98 29.96      
Jul 15 16:53 6 10 Partly Cloudy FEW065 SCT110 89 75     63%   99 29.99 29.96      
Jul 15 15:53   10 Partly Cloudy SCT044 90 72     56%   97 30.01 29.98      
Jul 15 14:53 6 10 Mostly Clear FEW110 90 72     56%   97 30.03 30      
Jul 15 13:53 Calm 10 Mostly Clear FEW100 FEW120 86 73     65%   93 30.06 30.04      
Jul 15 12:53 WNW 3 10 Cloudy SCT085 OVC110 86 72     63%   92 30.09 30.07      
Jul 15 11:53 Calm 10 Mostly Cloudy BKN090 86 71     61%   92 30.1 30.08      
Jul 15 10:53 Calm 10 Cloudy OVC090 84 74     72%   91 30.11 30.09      
Jul 15 09:53 Calm 10 Mostly Clear FEW095 80 74     82%   85 30.12 30.1      
Jul 15 08:53 ESE 3 10 Clear CLR 78 75     90%   80 30.12 30.1      
Jul 15 07:53 E 3 10 Clear CLR 76 75     97%   78 30.11 30.09      
Jul 15 07:20 Calm 10 Mostly Clear FEW003 75 75     100%   77 30.11        
Jul 15 06:53 Calm 9 Clear CLR 75 75     100%   77 30.1 30.08      
Jul 15 05:53 Calm 10 Mostly Cloudy FEW004 BKN080 75 74     96%   77 30.1 30.08      
Jul 15 05:32 Calm 9 Partly Cloudy SCT002 74 74     100%   76 30.09        
Jul 15 04:53 Calm 7 Cloudy OVC002 75 75     100%   77 30.09 30.06      
Jul 15 04:11 W 3 6 Fog/Mist BKN001 OVC110 75 75     100%   77 30.08        
Jul 15 04:02 W 3 7 Cloudy SCT001 OVC110 75 75     100%   77 30.09        
Jul 15 03:53 W 5 7 Cloudy OVC110 75 75     100%   77 30.08 30.06      
Jul 15 03:11 Calm 6 Fog/Mist SCT001 OVC100 74 74     100%   76 30.09        
Jul 15 02:53 WNW 3 4 Fog/Mist BKN001 OVC100 74 74     100%   76 30.09 30.07      
Jul 15 02:50 W 3 3 Fog/Mist OVC001 73 73     100%   75 30.09        
Jul 15 02:22 NNW 3 8 Mostly Cloudy BKN004 BKN110 74 74     100%   76 30.09        
Jul 15 02:10 NW 3 9 Mostly Cloudy SCT004 BKN120 74 74     100%   76 30.09        
Jul 15 01:53 NW 3 10 Mostly Cloudy BKN120 75 74     96%   77 30.09 30.07      
Jul 15 00:53 Calm 10 Mostly Cloudy SCT005 BKN100 76 76     100%   78 30.1 30.08      
Jul 15 00:33 ENE 6 10 Mostly Cloudy BKN005 76 76     100%   78 30.1        
Jul 15 00:24 ENE 6 10 Partly Cloudy SCT005 76 75     97%   78 30.1        
Jul 14 23:53 E 5 10 Clear CLR 75 74     96%   77 30.1 30.08      
Jul 14 22:53 Calm 10 Clear CLR 76 75     97%   78 30.1 30.08      
Jul 14 21:53 Calm 10 Clear CLR 78 76     93%   80 30.09 30.07      
Jul 14 20:53 Calm 10 Clear CLR 78 76     93%   80 30.09 30.07      
Jul 14 19:53 Calm 10 Clear CLR 80 75     85%   85 30.08 30.06      
Jul 14 18:53 Calm 10 Clear CLR 81 74     79%   86 30.07 30.05     1
Jul 14 17:53 Calm 10 Clear CLR 81 74     79%   86 30.08 30.06 0    
Jul 14 16:53 Calm 10 Light Rain FEW034 BKN042 BKN050 79 74     85%   83 30.1 30.08 0    
Jul 14 15:53 Calm 10 Clear CLR 79 73     82%   82 30.12 30.1   1  
Jul 14 14:53 Calm 10 Clear CLR 78 73     85%   80 30.13 30.11 0    
Jul 14 14:04 Calm 10 Mostly Clear FEW034 FEW085 76 74     94%   78 30.14        
Jul 14 13:53 Calm 10 Partly Cloudy FEW034 FEW075 SCT090 76 74     94%   78 30.14 30.12 1    
Jul 14 13:49 SW 5 10 Partly Cloudy FEW032 SCT075 SCT095 75 73     94%   77 30.14   1    
Jul 14 13:38 3 9 Light Rain FEW040 BKN075 OVC095 74 74     100%   76 30.13   1    
Jul 14 13:24 W 3 3 Thunderstorms and Rain and Fog/Mist SCT020 BKN065 OVC090 74 73     97%   76 30.14   1    
Jul 14 13:18 3 1 Thunderstorms and Heavy Rain and Fog/Mist BKN022 BKN065 OVC090 73 73     100%   75 30.13   1    
Jul 14 13:01 ENE 8 0.25 Thunderstorms and Heavy Rain SCT016 BKN026 OVC034 77 70     79%   78 30.14   1    
Jul 14 12:59   0.5 Thunderstorms and Heavy Rain and Fog FEW018 BKN026 OVC034 75 71     88%   76 30.16   0    
Jul 14 12:55   1.5 Thunderstorms and Heavy Rain and Fog/Mist SCT026 OVC034 75 73     94%   77 30.16   0    
Jul 14 12:53   3 Thunderstorms and Rain and Fog/Mist SCT026 OVC034 76 73     91%   77     0   0
Jul 14 12:39 7 10 Thunderstorms BKN036 OVC060 84 72     67%   90 30.13        
Jul 14 12:21 W 3 10 Cloudy BKN035 BKN042 OVC055 90 75     62%   101 30.1        
Jul 14 12:00 6 10 Thunderstorms SCT036 SCT100 94 77     58%   109 30.11        
Jul 14 11:53 5 10 Mostly Clear FEW034 FEW100 91 77     64%   105 30.11 30.09      
Jul 14 10:53 5 10 Clear CLR 88 76     68%   99 30.13 30.1      
Jul 14 09:53 5 10 Mostly Clear FEW046 86 75     70%   95 30.13 30.11      
Jul 14 08:53 Calm 10 Clear CLR 81 74     79%   86 30.14 30.12      
Jul 14 07:53 Calm 10 Clear CLR 78 73     85%   80 30.13 30.11      
Jul 14 06:53 Calm 10 Clear CLR 74 72     94%   75 30.12 30.1      
Jul 14 05:53 Calm 10 Clear CLR 73 72     96%   75 30.12 30.1      
Jul 14 04:53 Calm 10 Clear CLR 74 73     97%   76 30.12 30.09      
Jul 14 03:53 Calm 10 Clear CLR 74 73     97%   76 30.12 30.09      
Jul 14 02:53 Calm 10 Clear CLR 75 74     96%   77 30.12 30.09      
Jul 14 01:53 Calm 10 Clear CLR 75 74     96%   77 30.12 30.09      
Jul 14 00:53 Calm 10 Clear CLR 76 74     94%   78 30.12 30.1     0
Jul 13 23:53 Calm 10 Clear CLR 76 74     94%   78 30.13 30.11      
Jul 13 22:53 Calm 10 Clear CLR 77 73     88%   79 30.12 30.09      
Jul 13 21:53 E 8 10 Clear CLR 76 72     88%   77 30.09 30.07   0  
Jul 13 20:53 WNW 3 10 Clear CLR 79 69     72%   80 30.06 30.04      
Jul 13 19:53 NE 5 10 Clear CLR 78 70     76%   79 30.07 30.05 0    
Jul 13 19:44 3 10 Clear CLR 78 69     74%   79 30.07   0    
Jul 13 18:53 5 10 Thunderstorms and Rain SCT017 SCT040 BKN120 81 70     69%   84 30.09 30.06 0   0
Jul 13 17:53   10 Thunderstorms FEW065 BKN080 BKN095 83 74     74%   89 30.08 30.06 0    
Jul 13 17:00 SW 7 10 Thunderstorms BKN046 BKN060 91 75     60%   102 30.06        
Jul 13 16:53 SW 7 10 Mostly Cloudy SCT048 BKN060 91 75     60%   102 30.06 30.03      
Jul 13 16:32 S 7 10 Partly Cloudy SCT050 91 74     57%   101 30.07        
Jul 13 16:17 6 10 Mostly Clear FEW050 91 75     60%   102 30.07        
Jul 13 15:53 SE 8 10 Clear CLR 93 75     56%   105 30.07 30.04      
Jul 13 14:53   10 Mostly Clear FEW048 94 71     48%   101 30.08 30.06      
Jul 13 13:53 6 10 Mostly Clear FEW043 91 73     56%   100 30.1 30.08      
Jul 13 12:53   10 Clear CLR 91 74     57%   101 30.12 30.1      
Jul 13 11:53 SE 5 10 Clear CLR 87 75     68%   97 30.15 30.12      
Jul 13 10:53 SSW 5 10 Clear CLR 84 75     74%   92 30.16 30.14      
Jul 13 07:53 WSW 6 10 Mostly Clear FEW008 77 74     90%   79 30.15 30.13      
Jul 13 06:53 Calm 10 Clear CLR 76 74     94%   78 30.14 30.12      
Jul 13 05:53 SW 6 10 Mostly Clear FEW010 75 73     94%   77 30.12 30.1      
Jul 13 04:53 WSW 3 10 Clear CLR 76 73     91%   77 30.11 30.09      
Jul 13 03:53 Calm 10 Clear CLR 76 73     91%   77 30.09 30.07      
Jul 13 02:53 W 5 10 Clear CLR 78 73     85%   80 30.09 30.06      
Jul 13 01:53 WSW 5 10 Clear CLR 79 73     82%   82 30.09 30.06      
Jul 13 00:53 SSW 3 10 Clear CLR 80 73     79%   84 30.08 30.06      
Jul 12 23:53 Calm 10 Clear CLR 81 74     79%   86 30.07 30.05      
Jul 12 22:53 SSW 6 10 Clear CLR 82 77     85%   90 30.07 30.04      
Jul 12 21:53 7 10 Clear CLR 84 76     77%   93 30.06 30.03      
Jul 12 20:53 Calm 10 Clear CLR 86 75     70%   95 30.05 30.03      
Jul 12 19:53 S 6 10 Mostly Clear FEW036 88 74     63%   97 30.04 30.02      
Jul 12 18:53 7 10 Clear CLR 91 74     57%   101 30.03 30      
Jul 12 17:53 S 7 10 Clear CLR 91 74     57%   101 30.02 30      
Jul 12 15:53 S 7 10 Mostly Clear FEW048 91 74     57%   101 30.04 30.01      
Jul 12 14:53 7 10 Mostly Clear FEW040 92 73     54%   101 30.05 30.03      
Jul 12 12:53 SW 6 10 Mostly Cloudy SCT034 BKN047 90 75     62%   101 30.08 30.05      
Jul 11 20:53 SSE 3 10 Clear CLR 85 75     72%   93 29.98 29.96      
Jul 11 19:53 S 3 10 Clear CLR 87 74     65%   95 29.97 29.95      
Jul 10 14:53 SSW 7 10 Mostly Clear FEW045 91 71     52%   98 30.01 29.99      
Jul 10 13:53 SW 7 10 Partly Cloudy SCT045 90 72     56%   97 30.03 30.01      
Jul 10 12:53 3 10 Mostly Clear FEW037 90 72     56%   97 30.04 30.02      
Jul 10 11:53 SSW 7 10 Mostly Clear FEW032 86 72     63%   92 30.05 30.03      
Jul 10 10:53 7 10 Mostly Clear FEW033 85 73     68%   92 30.06 30.03      
Jul 10 09:53 SE 6 10 Clear CLR 84 71     65%   89 30.06 30.04      
Jul 10 07:53 Calm 10 Clear CLR 75 71     88%   76 30.04 30.02      
Jul 10 06:53 E 5 10 Mostly Clear FEW030 72 70     93%   73 30.04 30.02      
Jul 10 05:53 E 5 10 Clear CLR 71 69     93%   72 30.03 30.01      
Jul 10 04:53 Calm 10 Clear CLR 71 69     93%   72 30.01 29.99      
Jul 10 03:53 Calm 10 Clear CLR 72 69     91%   73 30.01 29.98      
Jul 10 02:53 ENE 3 10 Clear CLR 74 69     85%   75 30.02 29.99      
Jul 10 01:53 ENE 3 10 Clear CLR 73 70     90%   74 30.02 30      
Jul 10 00:53 E 5 10 Clear CLR 76 70     82%   77 30.03 30.01      
Jul 09 23:53 E 6 10 Clear CLR 76 70     82%   77 30.03 30.01      
Jul 09 22:53 ESE 3 10 Clear CLR 78 69     74%   79 30.05 30.02      
Jul 09 21:53 Calm 10 Clear CLR 81 70     69%   84 30.04 30.01      
Jul 09 19:53 SE 7 10 Clear CLR 86 68     55%   89 30.02 30      
Jul 09 18:26 SE 11 10 Mostly Clear FEW046 89 69     52%   94 30.02        
Jul 09 17:53 SE 7 10 Mostly Clear FEW047 90 70     52%   95 30.02 30      
Jul 09 15:53 ESE 7 10 Partly Cloudy SCT049 90 70     52%   95 30.05 30.02      
Jul 09 13:53 SSE 6 10 Mostly Clear FEW044 89 70     53%   94 30.09 30.07      
Jul 09 12:53 S 8 10 Mostly Clear FEW041 89 70     53%   94 30.1 30.07      
Jul 09 11:53 S 6 10 Clear CLR 87 71     59%   93 30.1 30.08      
Jul 09 09:53 SSE 7 10 Clear CLR 83 74     74%   89 30.11 30.09      
Jul 09 08:53 Calm 10 Clear CLR 80 74     82%   85 30.11 30.09      
Jul 09 06:53 Calm 10 Clear CLR 71 70     96%   72 30.09 30.07      
Jul 09 05:53 Calm 10 Clear CLR 70 69     97%     30.09 30.07      
Jul 09 05:02 Calm 10 Partly Cloudy SCT002 71 71     100%   73 30.08        
Jul 09 04:53 Calm 10 Mostly Cloudy BKN002 72 71     97%   73 30.08 30.06      
Jul 09 04:20 Calm 10 Mostly Clear FEW003 72 70     93%   73 30.08        
Jul 09 03:53 Calm 10 Clear CLR 72 71     97%   73 30.08 30.06      
Jul 09 02:53 Calm 10 Clear CLR 73 71     94%   74 30.08 30.06      
Jul 09 01:53 Calm 10 Clear CLR 73 72     96%   75 30.08 30.06      
Jul 09 00:53 Calm 10 Clear CLR 74 72     94%   75 30.1 30.07      
Jul 08 23:53 Calm 10 Clear CLR 77 74     90%   79 30.09 30.07      
Jul 08 22:53 Calm 10 Clear CLR 78 74     87%   80 30.08 30.06      
Jul 08 21:53 NW 3 10 Clear CLR 79 74     85%   83 30.08 30.06      
Jul 08 20:53 Calm 10 Clear CLR 81 74     79%   86 30.06 30.04      
Jul 08 19:53 S 3 10 Clear CLR 83 73     72%   89 30.03 30.01      
Jul 08 18:53 S 5 10 Clear CLR 86 72     63%   92 30.02 30      
Jul 08 15:53 S 5 10 Clear CLR 85 71     63%   90 30.04 30.02      
Jul 08 14:53 5 10 Clear CLR 82 71     69%   86 30.08 30.06      
Jul 08 13:53 7 10 Mostly Clear FEW029 84 70     63%   88 30.11 30.09      
Jul 08 12:53 WNW 6 10 Mostly Clear FEW020 80 71     74%   84 30.14 30.12     0
Jul 08 11:53 WSW 3 10 Mostly Clear FEW013 77 71     82%   78 30.14 30.11      
Jul 08 10:53 SSW 5 10 Mostly Clear FEW028 FEW090 FEW110 75 72     90%   76 30.11 30.09 0    
Jul 08 10:06 SSE 10 10 Light Rain FEW006 SCT100 BKN120 73 71     94%   74 30.09   0    
Jul 08 09:53 SE 5 10 Light Rain FEW090 BKN110 73 72     96%   75 30.09 30.07 0 0  
Jul 08 08:53 Calm 10 Light Rain FEW085 SCT110 73 70     90%   74 30.12 30.1 0    
Jul 08 07:53 SSE 5 10 Light Rain FEW047 BKN080 BKN100 72 70     93%   73 30.07 30.05 0    
Jul 08 07:25 WSW 5 10 Mostly Clear FEW050 FEW100 72 69     91%   73 30.09   0    
Jul 08 06:53 Calm 10 Light Rain SCT047 SCT055 BKN070 73 69     87%   74 30.09 30.06 0   0
Jul 08 06:51 Calm 10 Light Rain BKN050 72 70     94%   73 30.09   0    
Notice The following observation data may not be complete
Jul 08 05:40   10 Thunderstorms FEW023 BKN040 OVC049          %              
Jul 08 04:53 Calm 10 Mostly Cloudy FEW090 BKN110 78 76     93%   80 30.02 29.99      
Jul 08 03:53 Calm 10 Clear CLR 77 76     96%   79 29.99 29.97      
Jul 08 02:53 Calm 10 Clear CLR 78 76     93%   80 29.98 29.96      
Jul 08 01:53 WNW 3 10 Clear CLR 79 77     94%   83 30 29.97      
Jul 08 00:53 W 3 10 Clear CLR 81 77     88%   88 30.02 29.99      
Jul 07 23:53 Calm 10 Clear CLR 81 77     88%   88 30.02 29.99      
Jul 07 22:53 Calm 10 Clear CLR 82 77     85%   90 30.02 29.99      
Jul 07 21:53 Calm 10 Clear CLR 86 77     75%   97 30.01 29.99      
Jul 07 19:53 SW 3 10 Mostly Clear FEW065 89 76     65%   100 29.99 29.97      
Jul 07 18:53 WSW 7 10 Clear CLR 92 75     58%   103 29.98 29.96      
Jul 07 17:53 3 10 Clear CLR 94 72     49%   102 29.98 29.96      
Jul 07 14:53 6 10 Mostly Clear FEW049 94 72     49%   102 30.04 30.01      
Jul 07 13:53 Calm 10 Mostly Clear FEW048 94 71     48%   101 30.06 30.03      
Jul 07 12:53 WNW 5 10 Mostly Clear FEW044 91 73     56%   100 30.08 30.05      
Jul 07 11:53 W 6 10 Partly Cloudy SCT035 91 74     57%   101 30.09 30.06      
Jul 07 10:53 NW 5 10 Clear CLR 89 76     65%   100 30.1 30.08      
Jul 07 09:53 Calm 10 Clear CLR 85 76     75%   94 30.1 30.08      
Jul 07 07:53 WNW 3 10 Clear CLR 77 75     94%   79 30.09 30.07      
Jul 07 07:42 Calm 9 Partly Cloudy SCT001 76 75     97%   78 30.09        
Jul 07 07:27 Calm 3 Fog/Mist BKN001 75 75     100%   77 30.09        
Jul 07 07:17 Calm 1 Fog/Mist VV001 74 74     100%   76 30.09        
Jul 07 06:53 Calm 0.25 Fog VV001 74 74     100%   76 30.08 30.06      
Jul 07 06:35 Calm 0.25 Fog VV001 74 74     100%   76 30.08        
Jul 07 06:20 Calm 1 Fog/Mist OVC001 74 74     100%   76 30.07        
Jul 07 06:03 W 3 0.75 Fog/Mist VV001 74 74     100%   76 30.07        
Jul 07 05:53 W 3 2.5 Fog/Mist BKN001 74 74     100%   76 30.07 30.05      
Jul 07 05:51 WNW 3 3 Fog/Mist BKN001 73 73     100%   75 30.07        
Jul 07 05:46 Calm 2.5 Fog/Mist SCT001 74 74     100%   76 30.07        
Jul 07 04:53 Calm 8 Mostly Clear FEW050 75 75     100%   77 30.07 30.04      
Jul 07 03:53 Calm 9 Mostly Clear FEW050 76 75     97%   78 30.06 30.04      
Jul 07 02:53 Calm 10 Clear CLR 76 75     97%   78 30.05 30.03      
Jul 07 01:53 Calm 10 Clear CLR 76 75     97%   78 30.06 30.04      
Jul 07 00:53 ENE 3 10 Clear CLR 77 75     94%   79 30.07 30.04      
Jul 06 23:53 Calm 10 Clear CLR 78 76     93%   80 30.06 30.03      
Jul 06 22:53 Calm 10 Partly Cloudy FEW060 SCT070 80 76     87%   85 30.08 30.06      
Jul 06 21:53 Calm 10 Mostly Cloudy FEW050 SCT065 BKN075 81 75     82%   87 30.06 30.04      
Jul 06 20:53 W 3 10 Mostly Clear FEW075 82 74     77%   88 30.05 30.02      
Jul 06 19:53 Calm 10 Clear CLR 84 74     72%   91 30.03 30.01      
Jul 06 18:53 6 10 Clear CLR 85 72     65%   91 30.02 30      
Jul 06 17:53 WSW 6 10 Mostly Clear FEW055 87 73     63%   95 30.03 30.01      
Jul 06 16:53 SW 6 10 Mostly Clear FEW055 85 75     72%   93 30.04 30.02      
Jul 06 15:53 SW 6 10 Partly Cloudy FEW050 SCT065 85 75     72%   93 30.04 30.02      
Jul 06 14:53 S 8 10 Clear CLR 89 76     65%   100 30.05 30.03      
Jul 06 13:53 SSW 5 10 Partly Cloudy SCT038 89 73     59%   97 30.08 30.05      
Jul 05 17:53 WSW 11 10 Clear CLR 85 72     65%   91 30.01 29.99      
Jul 05 16:53 WSW 10 10 Clear CLR 86 72     63%   92 30.03 30      
Jul 05 15:53 WSW 14 10 Mostly Clear FEW033 86 71     61%   92 30.04 30.01      
Jul 05 14:53 6 10 Mostly Clear FEW027 84 71     65%   89 30.05 30.02      
Jul 05 14:05 SW 8 10 Partly Cloudy SCT021 81 71     72%   85 30.04        
Jul 05 13:53 WSW 8 10 Mostly Cloudy BKN021 80 71     74%   84 30.05 30.03      
Jul 05 13:23 WSW 14 10 Mostly Cloudy SCT014 BKN019 81 73     77%   86 30.05        
Jul 05 12:53 S 8 10 Mostly Cloudy BKN011 77 72     84%   78 30.02 30     0
Jul 05 12:45 SE 7 10 Mostly Cloudy BKN010 77 72     84%   78 30.01        
Jul 05 12:18 5 10 Mostly Cloudy BKN008 75 71     88%   76 30.01        
Jul 05 12:05 E 3 10 Partly Cloudy SCT009 74 71     91%   75 30.02        
Jul 05 11:53 3 10 Mostly Cloudy BKN009 75 72     90%   76 30.03 30.01 0    
Jul 05 11:51 Calm 10 Mostly Cloudy BKN009 73 72     94%   75 30.03   0    
Jul 05 11:16 SW 5 10 Mostly Cloudy BKN012 BKN090 73 71     94%   74 30.08   0    
Jul 05 10:53 SSW 5 9 Light Rain FEW013 BKN075 OVC090 71 70     96%   72 30.11 30.09 0    
Jul 05 10:17 WSW 13 3 Rain and Fog/Mist SCT009 BKN046 OVC100 71 70     96%   72 30.12   0    
Jul 05 10:09   2.5 Rain and Fog/Mist BKN009 BKN049 OVC100 71 70     96%   72 30.11   0    
Jul 05 09:53 W 10 4 Rain and Fog/Mist FEW009 OVC100 71 70     96%   72 30.09 30.08 0 0  
Jul 05 09:39 W 9 4 Rain and Fog/Mist FEW009 BKN100 BKN120 72 71     97%   73 30.1   0    
Jul 05 08:53 WSW 7 8 Light Rain BKN110 72 72     100%   74 30.07 30.05 0    
Jul 05 07:53 Calm 10 Partly Cloudy SCT110 72 72     100%   74 30.05 30.03 0    
Jul 05 06:53 WSW 3 3 Rain and Fog/Mist FEW070 BKN090 OVC110 72 72     100%   74 30.04 30.02 0   0
Jul 05 06:46 WSW 5 2.5 Heavy Rain and Fog/Mist SCT075 BKN090 OVC110 72 72     100%   74 30.04   0    
Jul 05 06:25 3 4 Rain and Fog/Mist BKN090 OVC110 73 72     96%   75 30.04   0    
Jul 05 06:01 WSW 8 6 Thunderstorms and Rain and Fog/Mist BKN090 OVC110 74 72     94%   75 30.04   0    
Jul 05 05:53 SSW 5 5 Rain and Fog/Mist BKN090 OVC110 74 73     97%   76 30.04 30.02 0    
Jul 05 05:09 WSW 3 4 Rain and Fog/Mist SCT008 SCT050 BKN090 73 73     100%   75 30.01   0    
Jul 05 05:04 5 4 Thunderstorms and Rain and Fog/Mist SCT010 BKN055 OVC110 74 73     97%   76 30.01   0    
Jul 05 04:57 WSW 7 2.5 Thunderstorms and Heavy Rain and Fog/Mist SCT008 BKN022 OVC075 74 73     97%   76 30.03   0    
Jul 05 04:53 WSW 11 3 Thunderstorms and Rain and Fog/Mist BKN008 BKN022 OVC040 74 73     97%   76 30.03   0    
Jul 05 04:46   5 Thunderstorms and Rain and Fog/Mist BKN008 BKN023 OVC042 74 73     97%   76 30.02   0    
Jul 05 04:31   10 Thunderstorms and Rain BKN026 BKN040 OVC080 77 74     90%   79 30   0    
Jul 05 04:22 WNW 5 10 Light Rain FEW031 SCT041 BKN060 77 74     90%   79 29.99   0    
Jul 05 03:53 ESE 5 10 Partly Cloudy SCT090 77 73     88%   79 29.96 29.94      
Jul 05 02:53 Calm 10 Partly Cloudy SCT070 77 73     88%   79 29.97 29.95      
Jul 05 01:53 Calm 10 Clear CLR 78 73     85%   80 29.99 29.96      
Jul 05 00:53 NW 3 10 Clear CLR 78 74     87%   80 30 29.98      
Jul 04 23:53 3 9 Clear CLR 79 74     85%   83 30.01 29.98      
Jul 04 22:53 WNW 5 9 Clear CLR 80 74     82%   85 30 29.97      
Jul 04 21:53 SW 5 10 Clear CLR 80 73     79%   84 29.98 29.96      
Jul 04 20:53 WSW 5 10 Clear CLR 81 73     77%   86 29.96 29.94      
Jul 04 19:53 SSW 7 10 Clear CLR 84 72     67%   90 29.96 29.93      
Jul 04 18:53 SSW 8 10 Mostly Clear FEW032 85 73     68%   92 29.95 29.93      
Jul 04 17:53 SSW 9 10 Partly Cloudy SCT045 85 74     70%   92 29.95 29.93      
Jul 04 16:53 SW 9 10 Mostly Cloudy SCT045 BKN055 87 73     63%   95 29.96 29.93      
Jul 04 15:53 SSW 13 10 Partly Cloudy FEW041 SCT055 87 72     61%   94 29.97 29.95      
Jul 04 14:53 SSW 10 10 Mostly Cloudy SCT037 SCT043 BKN055 87 73     63%   95 29.97 29.94      
Jul 04 13:53 SW 9 10 Mostly Clear FEW032 88 72     59%   95 29.97 29.94      
Jul 04 12:53 SSW 5 10 Mostly Clear FEW034 86 73     65%   93 29.99 29.96      
Jul 04 11:53 S 8 10 Partly Cloudy SCT027 SCT032 86 74     67%   94 30.01 29.98      
Jul 04 10:53 S 6 10 Partly Cloudy SCT019 83 75     77%   90 30.01 29.99      
Jul 04 10:28 5 10 Partly Cloudy SCT014 82 75     79%   89 30        
Jul 04 09:53 SE 7 10 Mostly Cloudy BKN016 81 76     85%   87 29.99 29.97      
Jul 04 08:53 Calm 10 Cloudy OVC012 79 76     90%   83 29.99 29.97      
Jul 04 07:53 SSW 5 10 Cloudy OVC014 79 75     88%   83 29.99 29.97      
Jul 04 07:39 SW 6 10 Mostly Cloudy BKN014 BKN019 79 76     90%   83 30        
Jul 04 06:53 ENE 3 10 Mostly Clear FEW017 FEW045 76 75     97%   78 29.98 29.96     0
Jul 04 05:53 E 3 10 Clear CLR 75 73     94%   77 29.98 29.96      
Jul 04 04:53 E 5 10 Clear CLR 75 72     90%   76 29.97 29.95      
Jul 04 03:53 E 5 10 Clear CLR 75 73     94%   77 29.98 29.96   0  
Jul 04 03:13 E 5 10 Mostly Clear FEW100 75 73     94%   77 30        
Jul 04 02:37 E 5 10 Cloudy SCT027 OVC036 77 75     94%   79 30.01   0    
Jul 04 02:30 E 3 10 Cloudy BKN027 OVC034 77 75     94%   79 30   0    
Jul 04 02:09 E 7 10 Thunderstorms BKN027 OVC038 77 74     90%   79 30   0    
Jul 04 01:39 ESE 3 10 Mostly Cloudy SCT028 BKN038 77 74     90%   79 30.01        
Jul 04 00:53 Calm 10 Cloudy BKN034 OVC043 77 75     94%   79 30.01 29.99      
Jul 03 23:53 E 5 10 Partly Cloudy SCT070 77 75     94%   79 30.01 29.98      
Jul 03 22:53 Calm 10 Cloudy OVC070 79 75     88%   83 30 29.98      
Jul 03 21:53 Calm 10 Mostly Clear FEW070 80 74     82%   85 30.01 29.98      
Jul 03 20:53 S 3 10 Clear CLR 80 74     82%   85 29.98 29.97      
Jul 03 19:53 S 8 10 Mostly Clear FEW060 83 75     77%   90 29.98 29.96      
Jul 03 18:53 SSW 7 10 Clear CLR 86 75     70%   95 29.97 29.95      
Jul 03 17:53 SSW 5 10 Mostly Clear FEW043 88 72     59%   95 29.98 29.96      
Jul 03 16:53 W 5 10 Partly Cloudy SCT070 89 72     57%   96 29.99 29.97      
Jul 03 15:53 7 10 Mostly Clear FEW038 89 72     57%   96 30 29.98      
Jul 03 14:53   10 Clear CLR 87 71     59%   93 30.01 29.99      
Jul 03 12:53 W 5 10 Clear CLR 81 70     69%   84 30.05 30.03      
Jul 03 11:53 W 7 10 Mostly Cloudy SCT018 SCT023 BKN047 80 71     74%   84 30.07 30.05      
Jul 03 10:53 SW 6 10 Mostly Cloudy SCT013 BKN050 75 71     88%   76 30.08 30.06      
Jul 03 09:53 WSW 5 10 Mostly Cloudy FEW011 BKN065 73 70     90%   74 30.08 30.05      
Jul 03 09:26 W 5 10 Mostly Cloudy FEW008 SCT022 BKN070 72 70     93%   73 30.08        
Jul 03 09:20 W 3 10 Mostly Cloudy SCT010 BKN022 BKN070 72 71     97%   73 30.08        
Jul 03 08:53 Calm 10 Cloudy OVC011 71 70     96%   72 30.08 30.05      
Jul 03 08:04 WSW 7 10 Mostly Cloudy FEW007 BKN014 BKN070 71 70     96%   72 30.07        
Jul 03 07:53 SSW 7 10 Mostly Cloudy FEW007 SCT014 BKN070 71 70     96%   72 30.06 30.04      
Jul 03 07:33 WSW 5 10 Cloudy FEW007 SCT070 OVC085 71 71     100%   73 30.06        
Jul 03 06:53 NW 3 10 Mostly Clear FEW080 71 70     96%   72 30 29.98 0   1
Jul 03 06:34 Calm 7 Light Rain SCT007 SCT025 BKN075 71 70     96%   72 30.01   0    
Jul 03 05:53 W 6 10 Mostly Cloudy BKN008 71 71     100%   73 30.02 29.99 0    
Jul 03 05:36 W 3 10 Light Rain SCT008 SCT065 SCT110 72 71     97%   73 30.01   0    
Jul 03 04:53 WSW 6 10 Cloudy OVC013 72 71     97%   73 30.03 30.01 0    
Jul 03 04:29 SSE 3 10 Cloudy SCT007 OVC012 71 71     100%   73 30   0    
Jul 03 04:04 Calm 10 Light Rain BKN014 71 71     100%   73 30.01   0    
Jul 03 03:53 Calm 10 Light Rain BKN015 BKN110 71 71     100%   73 30 29.98 0 1  
Jul 03 03:26 E 6 6 Rain and Fog/Mist BKN100 71 70     96%   72 29.99   0    
Jul 03 03:13 Calm 5 Thunderstorms and Rain and Fog/Mist FEW022 SCT028 OVC100 71 71     100%   73 30.01   0    
Jul 03 02:56 W 5 3 Thunderstorms and Rain and Fog/Mist BKN020 BKN031 OVC046 71 70     96%   72 30.04   0    
Jul 03 02:53 SW 5 1.5 Thunderstorms and Rain and Fog/Mist BKN020 BKN031 OVC046 71 70     96%   72 30.04   1    
Jul 03 02:51 SW 5 1 Thunderstorms and Heavy Rain and Fog/Mist BKN018 BKN031 OVC046 72 70     94%   73 30.04   1    
Jul 03 02:40 W 7 0.75 Thunderstorms and Heavy Rain and Fog/Mist SCT010 BKN022 OVC047 72 71     97%   73 30.05   0    
Jul 03 02:37   2 Thunderstorms and Rain and Fog/Mist FEW012 BKN035 OVC047 73 71     94%   74 30.05   0    
Jul 03 02:15 6 10 Thunderstorms SCT046 BKN065 BKN080 79 75     88%   83 30        
Jul 03 02:05 7 10 Mostly Cloudy FEW046 BKN070 79 75     88%   83 30        
Jul 03 01:53 SE 7 10 Mostly Cloudy BKN070 BKN080 80 76     87%   85 30.01 29.98      
Jul 03 00:53 SSE 10 10 Clear CLR 80 75     85%   85 30.02 29.99      
Jul 02 23:53 SSE 5 10 Cloudy OVC065 82 74     77%   88 30.04 30.01      
Jul 02 22:53 SE 3 10 Cloudy BKN055 OVC070 81 75     82%   87 30.05 30.03      
Jul 02 21:53 ESE 3 10 Mostly Clear FEW045 82 74     77%   88 30.03 30.01      
Jul 02 20:53 Calm 10 Clear CLR 83 74     74%   89 30.04 30.02      
Jul 02 19:53 Calm 10 Clear CLR 85 73     68%   92 30.04 30.01      
Jul 02 18:53 S 7 10 Clear CLR 86 72     63%   92 30.03 30.01      
Jul 02 17:53 S 9 10 Partly Cloudy SCT035 89 74     61%   98 30.03 30.01      
Jul 02 16:53 SSW 9 10 Partly Cloudy FEW034 SCT055 89 73     59%   97 30.04 30.02      
Jul 02 15:53 6 10 Partly Cloudy FEW047 SCT060 SCT075 89 74     61%   98 30.08 30.06      
Jul 02 14:53 SSW 7 10 Mostly Cloudy BKN038 88 73     61%   96 30.11 30.09      
Jul 02 14:04 W 5 10 Mostly Cloudy BKN031 86 73     65%   93 30.12        
Jul 02 13:53 W 8 10 Mostly Cloudy BKN027 BKN034 87 73     63%   95 30.13 30.1      
Jul 02 13:23 W 9 10 Mostly Cloudy SCT025 BKN035 85 74     70%   92 30.14        
Jul 02 12:53 SW 11 10 Mostly Cloudy SCT023 BKN028 BKN036 85 74     70%   92 30.15 30.13      
Jul 02 11:53 SW 9 10 Cloudy OVC019 81 73     77%   86 30.16 30.14      
Jul 02 10:53 SW 10 10 Cloudy OVC016 80 73     79%   84 30.16 30.14      
Jul 02 09:53 SW 3 10 Cloudy OVC018 77 72     84%   78 30.16 30.14      
Jul 02 08:53 SW 5 10 Cloudy SCT008 OVC022 75 72     90%   76 30.17 30.15      
Jul 02 08:14 WSW 5 10 Cloudy OVC005 74 72     94%   75 30.16        
Jul 02 07:53 W 6 9 Cloudy OVC004 73 72     96%   75 30.16 30.14      
Jul 02 06:53 W 3 5 Fog/Mist OVC003 71 71     100%   73 30.14 30.12      
Jul 02 06:02 WSW 5 7 Cloudy OVC004 70 70     100%     30.11        
Jul 02 05:53 WSW 3 9 Cloudy OVC005 71 70     96%   72 30.11 30.09      
Jul 02 05:09 WNW 5 10 Mostly Cloudy BKN008 70 69     97%     30.1        
Jul 02 05:01 W 6 10 Partly Cloudy SCT008 70 69     97%     30.1        
Jul 02 04:53 W 6 10 Clear CLR 69 69     100%     30.09 30.07      
Jul 02 03:53 Calm 10 Clear CLR 70 69     97%     30.08 30.06      
Jul 02 02:53 Calm 10 Mostly Clear FEW004 70 70     100%     30.07 30.05      
Jul 02 02:46 W 3 10 Partly Cloudy SCT004 70 70     100%     30.07        
Jul 02 02:24 WNW 5 10 Mostly Cloudy BKN004 71 70     96%   72 30.08        
Jul 02 02:16 WNW 3 10 Mostly Cloudy BKN006 71 70     96%   72 30.08        
Jul 02 02:07 Calm 10 Partly Cloudy SCT006 71 70     96%   72 30.09        
Jul 02 01:53 Calm 10 Clear CLR 71 70     96%   72 30.09 30.06      
Jul 02 00:53 Calm 10 Clear CLR 72 71     97%   73 30.09 30.06      
Jul 01 23:53 Calm 10 Clear CLR 73 71     94%   74 30.08 30.06      
Jul 01 22:53 Calm 10 Clear CLR 73 70     90%   74 30.09 30.07      
Jul 01 21:53 Calm 10 Clear CLR 74 71     91%   75 30.08 30.06      
Jul 01 20:53 Calm 10 Mostly Clear FEW022 74 71     91%   75 30.08 30.06      
Jul 01 19:53 Calm 10 Clear CLR 76 69     79%   77 30.05 30.03      
Jul 01 18:53 3 10 Clear CLR 78 70     76%   79 30.04 30.02     0
Jul 01 18:29 SW 5 10 Mostly Clear FEW044 76 69     79%   77 30.05        
Jul 01 18:06 SSW 8 10 Cloudy FEW028 BKN043 OVC100 76 69     79%   77 30.05        
Jul 01 17:53   10 Mostly Cloudy FEW027 BKN033 BKN045 78 70     76%   79 30.06 30.03 0    
Jul 01 17:34 SW 6 10 Light Rain FEW046 SCT060 BKN100 86 75     70%   95 30.03   0    
Jul 01 16:53 W 5 10 Partly Cloudy SCT120 88 73     61%   96 30.04 30.01      
Jul 01 15:53 NW 6 10 Mostly Clear FEW040 92 72     52%   100 30.03 30.01      
Jul 01 14:53   10 Clear CLR 90 72     56%   97 30.06 30.04      
Jul 01 13:53 3 10 Mostly Clear FEW120 89 71     55%   95 30.07 30.05      
Jul 01 12:53 WNW 5 10 Clear CLR 86 71     61%   92 30.08 30.06     0
Jul 01 11:53 6 10 Clear CLR 85 70     61%   89 30.1 30.08      
Jul 01 10:53 W 8 10 Clear CLR 82 70     67%   86 30.11 30.08      
Jul 01 09:53 Calm 10 Mostly Clear FEW012 79 70     74%   82 30.1 30.08   0  
Jul 01 07:53 3 10 Clear CLR 71 70     96%   72 30.05 30.03 0    
Jul 01 06:53 ENE 5 10 Clear CLR 70 70     100%     30.02 29.99     0
Jul 01 05:53 SSE 8 10 Mostly Clear FEW120 70 69     97%     29.96   0    
Jul 01 04:53 W 5 10 Light Rain OVC100 70 69     97%     30.07 30.05 0    
Jul 01 03:53 W 9 10 Mostly Cloudy FEW007 BKN100 BKN110 70 69     97%     30.06 30.04   0  
Jul 01 01:53 SSE 6 10 Clear CLR 71 70     96%   72 30 29.98 0    
Jul 01 00:53 NNE 6 10 Light Rain FEW055 SCT110 72 69     91%   73 30.04 30.02 0   0
Jul 01 00:29 NNW 6 10 Mostly Cloudy BKN100 71 70     96%   72 30.07   0    
Jul 01 00:08 N 7 8 Thunderstorms and Rain FEW015 BKN090 OVC110 71 70     96%   72 30.06   0    
Jun 30 23:53 NNW 9 2.5 Thunderstorms and Heavy Rain and Fog/Mist FEW015 BKN040 OVC085 71 70     96%   72 30.08 30.06 0    
Jun 30 23:49   4 Rain and Fog/Mist FEW018 BKN045 BKN060 72 70     94%   73 30.09   0    
Jun 30 23:34 WNW 14 10 Thunderstorms FEW032 FEW044 SCT050 80 76     87%   85 30.07        
Jun 30 21:53 E 3 10 Mostly Cloudy BKN049 81 75     82%   87 29.98 29.96      
Jun 30 20:53 Calm 10 Clear CLR 82 74     77%   88 29.94 29.92      
Jun 30 19:53 Calm 10 Clear CLR 86 74     67%   94 29.92 29.9      
Jun 30 18:53 SSW 7 10 Clear CLR 87 72     61%   94 29.91 29.88      
Jun 30 17:53 S 9 10 Clear CLR 88 69     54%   92 29.92 29.89      
Jun 30 16:53 SSW 9 10 Clear CLR 89 71     55%   95 29.93 29.91      
Jun 30 15:53 SSE 8 10 Clear CLR 87 71     59%   93 29.96 29.93      
Jun 30 14:53 SSE 7 10 Clear CLR 85 71     63%   90 29.97 29.94      
Jun 30 13:53 SSE 9 10 Clear CLR 80 71     74%   84 29.95 29.92      
Jun 30 12:53 3 10 Mostly Cloudy BKN065 80 71     74%   84 30.05 30.03     0
Jun 30 11:53 ENE 3 10 Cloudy FEW019 BKN050 OVC060 75 70     84%   76 30.07 30.05 0    
Jun 30 11:50 ESE 6 10 Mostly Cloudy BKN050 BKN060 BKN070 75 72     89%   77 30.06   0    
Jun 30 11:31 ENE 10 10 Light Rain FEW031 BKN043 OVC075 74 71     91%   75 30.06   0    
Jun 30 11:22 NE 11 2 Rain and Fog/Mist SCT035 BKN043 OVC075 73 69     87%   74 30.05   0    
Jun 30 11:04 NNE 14 10 Light Rain FEW024 SCT029 BKN038 75 67     76%   76 30.05   0    
Jun 30 10:53   10 Mostly Cloudy BKN022 BKN029 78 68     71%   79 30.03 30.01      
Jun 30 10:44 3 10 Mostly Cloudy SCT021 SCT026 BKN031 87 76     70%   98 30.02        
Jun 30 10:18 SSW 8 10 Mostly Cloudy BKN019 BKN024 85 75     72%   93 30        
Jun 30 10:09 WSW 9 10 Mostly Cloudy SCT019 SCT025 BKN047 86 76     72%   96 30        
Jun 30 09:53 SW 8 10 Mostly Cloudy BKN019 BKN026 BKN045 84 76     77%   93 30 29.98      
Jun 30 09:29 SW 9 10 Mostly Cloudy SCT017 SCT025 BKN070 84 76     77%   93 29.99        
Jun 30 08:53 SW 5 10 Cloudy BKN017 OVC022 82 76     82%   89 29.98 29.96      
Jun 30 07:53 SSW 8 10 Cloudy BKN017 OVC023 80 76     87%   85 29.97 29.94      
Jun 30 07:13 SW 6 10 Cloudy OVC015 80 76     87%   85 29.96        
Jun 30 06:53 SW 8 10 Cloudy OVC013 80 76     87%   85 29.95 29.92      
Jun 30 05:53 SSW 7 10 Cloudy OVC011 79 76     90%   83 29.93 29.91      
Jun 30 05:00 S 6 10 Cloudy OVC010 79 77     94%   83 29.91        
Jun 30 04:53 SSW 8 10 Cloudy OVC008 79 77     94%   83 29.91 29.88      
Jun 30 03:53 5 10 Cloudy OVC009 79 77     94%   83 29.89 29.87      
Jun 30 02:53 SSW 9 10 Cloudy OVC008 78 76     93%   80 29.88 29.85      
Jun 30 02:09 S 8 10 Cloudy OVC009 78 76     93%   80 29.87        
Jun 30 01:53 5 10 Mostly Cloudy BKN010 78 75     90%   80 29.88 29.86      
Jun 30 01:45 SSE 6 10 Mostly Cloudy BKN011 BKN029 BKN044 78 75     90%   80 29.89        
Jun 30 00:53 Calm 10 Mostly Cloudy FEW037 BKN044 79 75     88%   83 29.92 29.89      
Jun 29 23:53 E 5 10 Mostly Cloudy BKN035 77 75     94%   79 29.91 29.88      
Jun 29 22:53 E 6 10 Clear CLR 76 73     91%   77 29.89 29.87      
Jun 29 21:53 ESE 3 10 Clear CLR 79 74     85%   83 29.88 29.85      
Jun 29 20:53 SE 5 10 Clear CLR 81 74     79%   86 29.86 29.84      
Jun 29 19:53 SSE 8 10 Clear CLR 83 73     72%   89 29.86 29.84      
Jun 29 18:53 5 10 Mostly Cloudy BKN060 84 73     70%   90 29.89 29.86      
Jun 29 17:53 SE 10 10 Cloudy FEW031 OVC060 85 72     65%   91 29.9 29.87      
Jun 29 16:53 SSE 7 10 Cloudy OVC060 85 72     65%   91 29.91 29.89      
Jun 29 15:53 SSE 9 10 Cloudy FEW027 OVC060 86 73     65%   93 29.91 29.89      
Jun 29 14:53 S 7 10 Cloudy FEW026 OVC055 85 72     65%   91 29.92 29.9      
Jun 29 13:53 SE 9 10 Cloudy SCT028 OVC037 82 72     72%   87 29.93 29.91      
Jun 29 13:45 S 7 10 Cloudy SCT026 BKN035 OVC049 84 72     67%   90 29.93        
Jun 29 12:53 S 7 10 Cloudy FEW021 BKN026 OVC034 81 71     72%   85 29.95 29.92      
Jun 29 12:33 S 6 10 Cloudy SCT020 BKN027 OVC035 81 71     72%   85 29.95        
Jun 29 12:26 3 10 Cloudy SCT020 BKN030 OVC037 81 72     74%   85 29.95        
Jun 29 12:13 SSE 8 10 Cloudy SCT019 BKN029 OVC037 81 72     74%   85 29.96        
Jun 29 11:53 SE 8 10 Cloudy FEW018 BKN036 OVC044 80 72     76%   84 29.96 29.94      
Jun 29 11:41 SSE 9 10 Cloudy FEW020 BKN033 OVC042 79 71     77%   82 29.97        
Jun 29 10:53 S 6 10 Cloudy BKN018 BKN026 OVC030 77 71     82%   78 29.97 29.95      
Jun 29 09:53 S 7 10 Cloudy SCT015 OVC022 76 70     82%   77 29.97 29.94      
Jun 29 09:10 7 10 Clear   75 71     88%   76 29.96        
Jun 29 08:53 SSW 5 10 Clear   75 71     88%   76 29.96 29.93      
Jun 29 08:49 S 6 10 Clear   75 72     89%   77 29.95        
Jun 29 08:15 6 10 Cloudy SCT008 BKN016 OVC021 74 71     91%   75 29.95        
Jun 29 07:53 S 7 7 Cloudy OVC008 73 71     94%   74 29.95 29.93      
Jun 29 06:53 S 7 10 Cloudy OVC008 73 71     94%   74 29.95 29.93      
Jun 29 03:53 SSE 7 10 Clear CLR 75 71     88%   76 29.94 29.91      
Jun 29 02:53 S 7 10 Clear CLR 76 71     85%   77 29.94 29.91      
Jun 29 01:53 SSE 7 10 Mostly Clear FEW065 77 70     79%   78 29.94 29.91      
Jun 29 00:53 SE 6 10 Clear CLR 78 68     71%   79 29.94 29.92      
Jun 28 23:53 SSE 7 10 Clear CLR 79 69     72%   80 29.94 29.92      
Jun 28 22:53 SE 5 10 Clear CLR 79 70     74%   82 29.94 29.91      
Jun 28 21:53 SE 6 10 Clear CLR 80 70     71%   83 29.93 29.91      
Jun 28 20:53 ESE 5 10 Clear CLR 82 69     65%   85 29.92 29.89      
Jun 28 19:53 SSE 9 10 Mostly Clear FEW042 84 69     61%   88 29.92 29.89      
Jun 28 18:53 SSE 10 10 Mostly Clear FEW055 86 68     55%   89 29.92 29.9      
Jun 28 17:53 SSE 8 10 Partly Cloudy SCT044 88 68     52%   92 29.92 29.9      
Jun 28 16:53 SSE 9 10 Clear CLR 88 68     52%   92 29.94 29.91      
Jun 28 15:53 SE 7 10 Partly Cloudy FEW049 SCT055 87 66     50%   89 29.95 29.93      
Jun 28 14:53 S 9 10 Clear CLR 88 63     43%   89 29.97 29.95      
Jun 28 13:53 S 10 10 Clear CLR 87 63     45%   88 29.99 29.97      
Jun 28 12:53 SSW 9 10 Partly Cloudy SCT043 85 64     50%   86 30.01 29.99      
Jun 28 11:53 SSW 7 10 Partly Cloudy SCT042 85 65     51%   87 30.02 30      
Jun 28 10:53 S 8 10 Mostly Clear FEW037 84 66     55%   86 30.02 30      
Jun 28 09:53 SSW 6 10 Clear CLR 81 67     62%   83 30.03 30.01      
Jun 28 08:53 Calm 10 Clear CLR 77 66     69%   78 30.05 30.03      
Jun 28 07:53 E 5 10 Clear CLR 74 65     74%   74 30.03 30.01      
Jun 28 06:53 E 5 10 Clear CLR 70 64     81%     30.02 30      
Jun 28 05:53 E 3 10 Clear CLR 68 63     84%     30.02 29.99      
Jun 28 04:53 E 5 10 Clear CLR 68 63     84%     30 29.98      
Jun 28 03:53 E 5 10 Clear CLR 68 64     87%     30 29.98      
Jun 28 02:53 E 5 10 Clear CLR 70 64     81%     30.01 29.99      
Jun 28 01:53 E 5 10 Clear CLR 70 65     84%     30.02 30      
Jun 28 00:53 E 5 10 Clear CLR 71 66     84%   72 30.02 30      
Jun 27 23:53 E 6 10 Clear CLR 72 66     82%   73 30.03 30.01      
Jun 27 22:53 E 5 10 Clear CLR 73 66     79%   74 30.03 30.01      
Jun 27 21:53 E 5 10 Clear CLR 74 66     76%   75 30.02 30      
Jun 27 20:53 E 6 10 Clear CLR 79 66     65%   80 30.01 29.99      
Jun 27 19:53 ESE 6 10 Clear CLR 82 64     55%   84 30 29.98      
Jun 27 18:53 E 7 10 Clear CLR 83 62     49%   84 30 29.98      
Jun 27 17:53 E 8 10 Mostly Clear FEW050 85 62     46%   86 30.01 29.99      
Jun 27 16:53 SSE 8 10 Partly Cloudy SCT050 84 62     48%   85 30.02 30.01      
Jun 27 15:53 SE 8 10 Mostly Clear FEW055 86 60     42%   86 30.04 30.02      
Jun 27 14:53 7 10 Partly Cloudy SCT050 86 61     43%   86 30.04 30.02      
Jun 27 13:53   10 Mostly Clear FEW050 85 62     46%   86 30.06 30.04      
Jun 27 12:53 ESE 9 10 Mostly Clear FEW046 83 62     49%   84 30.08 30.06      
Jun 27 11:53   10 Clear CLR 82 63     53%   83 30.08 30.06      
Jun 27 09:53 E 6 10 Clear CLR 77 62     60%   77 30.11 30.09      
Jun 27 08:53 3 10 Clear CLR 75 62     64%   75 30.12 30.1      
Jun 27 07:53 Calm 10 Mostly Clear FEW055 70 64     81%     30.11 30.09      
Jun 27 06:53 Calm 10 Clear CLR 65 63     93%     30.1 30.08      
Jun 27 05:53 Calm 10 Clear CLR 64 63     96%     30.1 30.08      
Jun 27 04:53 Calm 10 Cloudy OVC100 64 63     96%     30.09 30.07      
Jun 27 03:53 Calm 10 Clear CLR 64 63     96%     30.08 30.06      
Jun 27 01:53 Calm 10 Clear CLR 68 63     84%     30.08 30.06      
Jun 27 00:53 E 3 10 Mostly Clear FEW100 70 64     81%     30.09 30.07      
Jun 26 23:53 SE 3 10 Cloudy OVC110 71 65     81%   72 30.09 30.07      
Jun 26 22:53 E 3 10 Partly Cloudy SCT100 72 65     79%   73 30.09 30.07      
Jun 26 21:53 E 3 10 Clear CLR 72 65     79%   73 30.08 30.06      
Jun 26 20:53 E 3 10 Partly Cloudy SCT110 75 66     74%   76 30.08 30.06      
Jun 26 19:53 E 5 10 Clear CLR 78 64     62%   79 30.07 30.05      
Jun 26 18:53 ESE 7 10 Clear CLR 80 62     54%   81 30.07 30.05      
Jun 26 17:53 SE 5 10 Clear CLR 82 60     47%   82 30.07 30.05      
Jun 26 16:53 E 7 10 Clear CLR 81 60     49%   82 30.09 30.07      
Jun 26 15:53 SSE 3 10 Clear CLR 81 60     49%   82 30.11 30.09      
Jun 26 14:53 SSE 3 10 Clear CLR 81 62     53%   82 30.13 30.11      
Jun 26 13:53 3 10 Clear CLR 82 61     49%   83 30.15 30.14      
Jun 26 12:53 SE 6 10 Clear CLR 81 59     47%   81 30.17 30.16      
Jun 26 11:53 SE 7 10 Clear CLR 81 59     47%   81 30.19 30.18      
Jun 26 10:53 7 10 Clear CLR 82 61     49%   83 30.21 30.19      
Jun 26 09:53 Calm 10 Clear CLR 80 62     54%   81 30.21 30.19      
Jun 26 08:53 Calm 10 Mostly Clear FEW120 75 66     74%   76 30.21 30.19      
Jun 26 07:53 Calm 10 Clear CLR 72 67     84%   73 30.2 30.18      
Jun 26 06:53 S 3 10 Mostly Cloudy BKN110 68 66     93%     30.19 30.17     0
Jun 26 05:53 Calm 10 Mostly Cloudy BKN120 69 65     87%     30.2 30.18      
Jun 26 04:53 Calm 10 Mostly Cloudy BKN120 68 65     90%     30.2 30.18 0    
Jun 26 03:53 NNW 3 10 Light Rain FEW050 FEW090 SCT120 68 63     84%     30.2 30.18 0 0  
Jun 26 02:53 Calm 10 Clear CLR 69 63     81%     30.2 30.18      
Jun 26 01:53 NW 5 10 Clear CLR 69 63     81%     30.21 30.18      
Jun 26 00:53 Calm 10 Clear CLR 70 62     76%     30.2 30.18      
Jun 25 23:53 Calm 10 Clear CLR 70 62     76%     30.2 30.18      
Jun 25 22:53 E 5 10 Clear   70 61     73%     30.2 30.18      
Jun 25 21:53 E 6 10 Clear CLR 71 62     73%   71 30.19 30.17      
Jun 25 20:53 ENE 5 10 Clear CLR 75 62     64%   75 30.17 30.15      
Jun 25 19:53 ESE 6 10 Clear CLR 82 61     49%   83 30.17 30.15      
Jun 25 18:53 SSE 7 10 Clear CLR 83 57     41%   82 30.17 30.15      
Jun 25 17:53 SE 8 10 Clear CLR 85 58     40%   84 30.17 30.15      
Jun 25 16:53 SSE 7 10 Clear CLR 85 59     42%   85 30.19 30.17      
Jun 25 14:53 5 10 Clear CLR 85 58     40%   84 30.22 30.19      
Jun 25 13:53 E 9 10 Clear CLR 84 59     43%   84 30.24 30.22      
Jun 25 12:53 6 10 Clear CLR 84 58     41%   83 30.26 30.23      
Jun 25 11:53 E 7 10 Clear CLR 82 57     43%   82 30.26 30.24      
Jun 25 10:53 ENE 6 10 Clear CLR 80 56     44%   80 30.27 30.25      
Jun 25 09:53 ESE 6 10 Clear CLR 79 56     45%   79 30.27 30.25      
Jun 25 08:53 E 9 10 Partly Cloudy SCT110 76 56     50%   76 30.26 30.24      
Jun 25 07:53 Calm 10 Clear CLR 72 61     68%   72 30.25 30.23      
Jun 25 06:53 Calm 10 Clear CLR 66 61     84%     30.24 30.22     0
Jun 25 05:53 WSW 5 10 Clear CLR 65 60     84%     30.22 30.2 0    
Jun 25 04:53 E 3 10 Light Rain FEW031 SCT060 BKN090 67 63     87%     30.2 30.19 0    
Jun 25 03:53 Calm 10 Mostly Cloudy BKN100 68 62     81%     30.21 30.19      
Jun 25 02:53 Calm 10 Cloudy OVC110 70 61     73%     30.21 30.19      
Jun 25 01:53 Calm 10 Cloudy OVC110 71 60     68%   71 30.21 30.19      
Jun 25 00:53 ENE 7 10 Mostly Cloudy BKN100 72 57     59%   72 30.2 30.18      
Jun 24 23:53 ENE 8 10 Mostly Clear FEW100 74 59     60%   74 30.19 30.17      
Jun 24 22:53 NE 6 10 Mostly Cloudy BKN100 75 61     62%   75 30.18 30.16      
Jun 24 21:53 ENE 3 10 Mostly Cloudy BKN100 74 64     71%   74 30.17 30.15      
Jun 24 20:53 Calm 10 Clear CLR 75 65     71%   76 30.15 30.13      
Jun 24 19:53 E 3 10 Clear CLR 78 63     60%   78 30.14 30.12      
Jun 24 18:53 NE 9 10 Clear CLR 79 60     52%   79 30.12 30.11      
Jun 24 17:53 NE 9 10 Clear CLR 81 60     49%   82 30.12 30.1      
Jun 24 16:53 ENE 10 10 Clear CLR 83 60     46%   83 30.11 30.09      
Jun 24 15:53 7 10 Clear CLR 82 61     49%   83 30.11 30.09      
Jun 24 14:53 NE 6 10 Clear CLR 80 61     52%   81 30.13 30.11      
Jun 24 13:53 N 8 10 Clear CLR 79 61     54%   79 30.15 30.13      
Jun 11 21:53 SE 8 10 Clear   82 72     72%   87 29.98 29.96      
Jun 10 21:53 ESE 3 10 Clear CLR 76 63     64%   76 29.95 29.93      
Jun 10 10:53 S 10 10 Clear CLR 80 62     54%   81 30 29.98      
Jun 08 18:53 NE 9 10 Clear   80 54     41%   80 29.92 29.9      
Jun 08 13:53   10 Clear CLR 83 55     38%   82 29.99 29.98      
Jun 08 07:53 Calm 10 Clear CLR 64 59     84%     30.03 30.02      
Jun 06 10:53 ENE 10 10 Mostly Clear FEW033 83 71     67%   88 29.85 29.83      
Jun 06 01:07 Calm 10 Partly Cloudy SCT016 70 69     97%     29.81        
Notice The following observation data may not be complete
Jun 05 15:38   10 Mostly Clear FEW006          %